Location: ???? ????
(31.2831°N, 45.5190°E)
Time: 05:10:06
(UTC+00:00)

YAOGAN 1 - Pass Details

Date: 24 February 2021
Orbit: 618 x 620 km, 97.9° (Epoch: 14 April)

Event Time Altitude Azimuth Distance (km) Brightness Sun altitude
Rises 15:32:14 0° 156° (SSE) 2,879 5.8 -9.3°
Reaches altitude 10° 15:34:26 10° 152° (SSE) 1,978 4.9 -9.7°
Maximum altitude 15:38:37 53° 75° (ENE) 759 2.6 -10.6°
Drops below altitude 10° 15:42:51 10° 359° (N) 1,990 5.1 -11.5°
Sets 15:45:04 0° 354° (N) 2,900 6.0 -12.0°
